Time,TemperatureF,DewpointF,PressureIn,WindDirection,WindDirectionDegrees,WindSpeedMPH,WindSpeedGustMPH,Humidity,HourlyPrecipIn,Conditions,Clouds,dailyrainin,SoftwareType,DateUTC
2013-08-17 22:24:00,5.9,-5.0,29.65,North,0,0.0,0.0,60,0.00,,---,0.00,VWS V14.01,2013-08-18 02:24:00,
2013-08-17 22:25:00,5.9,-5.0,29.65,North,0,0.0,0.0,60,0.00,,---,0.00,VWS V14.01,2013-08-18 02:25:00,
2013-08-17 22:26:00,5.9,-5.0,29.65,North,0,0.0,0.0,60,0.00,,---,0.00,VWS V14.01,2013-08-18 02:26:00,
2013-08-17 22:28:00,5.9,-5.0,29.65,North,0,0.0,0.0,60,0.00,,---,0.00,VWS V14.01,2013-08-18 02:28:00,
2013-08-17 22:33:00,5.0,-5.8,29.65,North,0,0.0,0.0,60,0.00,,---,0.00,VWS V14.01,2013-08-18 02:33:00,
2013-08-17 22:38:00,4.3,-6.5,29.65,North,0,0.0,0.0,60,0.00,,---,0.00,VWS V14.01,2013-08-18 02:38:00,
2013-08-17 22:44:00,3.7,-7.0,29.65,North,0,0.0,0.0,60,0.00,,---,0.00,VWS V14.01,2013-08-18 02:44:00,
2013-08-17 22:49:00,3.2,-7.5,29.65,North,0,0.0,0.0,60,0.00,,---,0.00,VWS V14.01,2013-08-18 02:49:00,
2013-08-17 22:54:00,2.7,-8.1,29.65,North,0,0.0,0.0,60,0.00,,---,0.00,VWS V14.01,2013-08-18 02:54:00,
2013-08-17 23:00:00,2.1,-8.6,29.65,North,0,0.0,0.0,60,0.00,,---,0.00,VWS V14.01,2013-08-18 03:00:00,
2013-08-17 23:06:00,1.8,-8.9,29.65,North,0,0.0,0.0,60,0.00,,---,0.00,VWS V14.01,2013-08-18 03:06:00,
2013-08-17 23:11:00,1.4,-9.2,29.65,North,0,0.0,0.0,60,0.00,,---,0.00,VWS V14.01,2013-08-18 03:11:00,
2013-08-17 23:16:00,1.0,-9.6,29.65,North,0,0.0,0.0,60,0.00,,---,0.00,VWS V14.01,2013-08-18 03:16:00,
2013-08-17 23:22:00,0.7,-9.9,29.65,North,0,0.0,0.0,60,0.00,,---,0.00,VWS V14.01,2013-08-18 03:22:00,
2013-08-17 23:28:00,0.3,-10.3,29.65,North,0,0.0,0.0,60,0.00,,---,0.00,VWS V14.01,2013-08-18 03:28:00,
2013-08-17 23:33:00,0.1,-10.4,29.65,North,0,0.0,0.0,60,0.00,,---,0.00,VWS V14.01,2013-08-18 03:33:00,
2013-08-17 23:38:00,0.0,-10.6,29.65,North,0,0.0,0.0,60,0.00,,---,0.00,VWS V14.01,2013-08-18 03:38:00,
2013-08-17 23:43:00,-0.4,-10.9,29.65,North,0,0.0,0.0,60,0.00,,---,0.00,VWS V14.01,2013-08-18 03:43:00,
2013-08-17 23:49:00,-0.6,-11.1,29.65,North,0,0.0,0.0,60,0.00,,---,0.00,VWS V14.01,2013-08-18 03:49:00,
2013-08-17 23:54:00,-0.8,-11.3,29.65,North,0,0.0,0.0,60,0.00,,---,0.00,VWS V14.01,2013-08-18 03:54:00,
2013-08-17 23:59:00,-0.6,-11.1,29.65,North,0,0.0,0.0,60,0.00,,---,0.00,VWS V14.01,2013-08-18 03:59:00,